Theta_e
311 311 311 311 310 310 310 310 312 310 309 308 308 306 306 305 307 312 314 309 309 322 326 326 324 323 320 328 345 354 363 365 361 361 364 358 359 355 351 350 346 345 345 343 344
313 312 312 311 311 312 312 313 312 313 312 309 307 306 305 308 314 317 309 309 314 313 320 319 323 320 320 327 332 357 356 360 357 357 362 358 358 356 353 356 355 345 342 345 348
315 315 315 314 313 312 312 314 313 313 313 312 310 306 305 310 319 319 323 311 312 315 315 316 321 322 323 329 341 352 358 351 355 356 357 356 355 353 352 355 351 346 344 347 346
315 315 315 314 314 314 314 313 312 313 313 313 311 307 306 314 320 327 321 317 313 314 317 317 317 325 329 331 344 353 352 351 355 355 355 356 352 349 349 353 347 343 343 346 347
314 315 314 314 314 314 314 314 315 314 314 313 313 310 315 320 317 316 320 318 317 317 316 317 321 330 329 335 352 356 356 349 355 353 351 351 355 359 354 353 351 343 343 345 346
314 314 314 314 314 314 314 314 314 314 314 313 313 312 317 313 311 321 320 317 315 317 317 318 330 332 334 335 341 345 351 353 355 356 352 358 357 352 353 352 352 343 341 342 346
314 314 314 314 315 315 315 314 314 313 314 314 316 315 319 313 321 323 318 318 316 315 317 317 324 334 332 328 329 333 347 352 355 358 357 352 355 357 351 350 348 343 341 339 344
313 313 313 313 313 314 313 312 310 311 315 316 316 317 314 311 313 313 322 319 316 315 314 322 325 332 330 323 324 331 351 351 358 359 358 356 359 351 349 352 352 344 342 340 345
314 314 313 313 313 311 308 309 310 311 315 319 313 317 318 318 317 319 321 320 317 314 315 324 328 327 322 323 321 324 330 352 361 358 359 357 354 354 352 354 354 349 342 340 346
312 314 313 312 311 309 314 310 312 318 319 316 316 318 317 321 319 320 321 322 317 316 318 321 323 320 318 319 324 326 333 341 356 361 357 357 357 354 353 355 357 349 342 340 345
313 313 311 310 311 308 315 319 318 322 319 313 315 322 323 321 320 318 321 319 318 319 321 324 319 321 321 320 321 323 326 357 361 358 358 356 354 355 353 354 357 346 341 341 345
314 314 310 310 310 310 308 314 321 318 315 319 316 320 321 319 318 318 321 321 321 323 323 320 321 320 321 321 322 322 328 359 356 355 356 358 361 359 356 356 352 345 340 341 343
314 314 313 310 310 312 311 314 320 318 315 315 318 317 317 317 319 319 320 320 321 322 322 321 323 323 324 323 322 321 323 354 357 354 354 355 356 358 355 354 348 345 340 341 342
314 314 315 313 313 314 313 319 318 317 311 315 317 320 319 318 321 324 321 320 320 321 322 322 323 324 324 323 321 318 321 344 354 357 363 353 355 353 351 356 352 348 344 341 340
313 314 314 315 313 310 318 319 319 312 320 322 320 320 318 321 322 322 323 321 320 321 319 321 322 322 323 323 321 321 322 337 350 350 355 358 357 351 352 360 357 354 348 346 342
313 313 313 315 315 317 317 318 317 314 323 326 318 317 318 321 322 322 322 321 321 322 322 320 321 319 319 321 322 323 339 341 342 345 351 350 355 358 358 359 358 353 349 349 347
313 312 313 314 315 318 317 314 318 327 324 325 323 321 316 319 321 322 322 321 320 322 321 323 323 321 320 321 321 324 324 328 346 353 348 348 353 348 354 356 356 357 355 352 349
312 313 314 316 318 318 318 318 327 327 325 323 323 319 317 317 319 322 322 321 320 320 320 324 324 323 323 321 322 324 324 328 338 340 340 345 355 354 348 346 348 349 349 349 349
316 315 318 321 322 321 313 320 324 325 323 323 319 318 319 321 320 321 322 321 320 318 321 323 325 325 323 324 321 323 325 323 328 328 339 349 350 345 351 349 347 345 351 352 349
318 318 318 320 322 319 317 323 323 322 323 320 321 321 323 324 322 320 321 320 321 322 318 323 326 324 326 323 324 323 326 332 326 334 343 351 352 353 352 362 358 350 353 352 345
319 317 322 323 322 317 321 320 322 321 322 319 320 319 323 325 324 325 324 321 320 318 320 321 321 323 323 324 324 327 329 327 325 326 337 353 352 356 359 358 358 356 352 347 345
316 319 322 321 317 316 321 321 320 316 316 317 318 317 323 323 324 326 324 320 318 317 324 323 319 322 324 323 323 326 328 325 329 330 343 344 357 352 350 349 349 350 347 347 346
316 317 319 319 317 319 317 318 315 316 317 317 317 316 321 322 323 323 323 319 317 318 319 320 320 326 324 319 319 320 321 319 320 328 334 340 352 349 348 347 346 348 347 345 343
316 313 310 308 308 313 315 315 315 315 317 318 317 316 316 318 318 322 322 319 318 317 325 321 316 322 326 321 322 321 320 321 318 325 339 346 352 352 349 348 346 343 340 339 341
317 312 311 313 312 314 313 315 316 317 314 315 318 319 318 321 322 323 322 322 319 323 318 318 321 320 320 321 320 320 321 321 323 329 331 348 350 351 348 342 337 335 332 331 332
318 319 318 315 313 313 313 315 316 315 315 315 320 319 319 322 322 322 319 318 322 321 319 316 321 321 321 321 320 321 321 329 335 343 344 346 347 342 336 333 332 331 329 328 328
321 320 319 320 312 311 313 316 318 318 316 317 319 317 316 316 316 316 318 315 316 319 317 320 320 323 325 321 320 320 321 325 339 340 344 347 343 338 336 334 331 329 328 327 324
Wind_Speed
14 14 14 14 14 13 13 12 12 12 13 14 12 12 12 13 16 9 8 10 12 6 10 9 9 9 7 3 5 3 3 5 2 5 6 12 11 5 3 11 12 2 17 29 36
14 14 14 14 14 13 13 13 13 13 12 12 12 12 11 12 13 14 22 14 13 20 12 10 6 8 3 4 3 5 1 4 6 11 6 10 16 13 4 5 5 15 17 33 39
14 14 14 15 14 14 14 14 14 13 13 12 11 11 10 9 4 8 3 18 22 15 15 14 7 5 4 4 6 7 5 5 8 10 10 13 14 9 15 3 8 21 19 28 33
16 16 16 16 15 15 15 14 14 14 13 13 10 8 6 3 3 2 8 15 21 17 14 7 5 5 6 7 7 6 7 7 5 4 6 12 14 14 10 8 14 17 18 25 23
17 16 16 16 16 16 16 15 14 14 14 12 11 6 2 1 9 7 6 21 22 18 17 7 7 6 6 6 8 5 10 9 3 4 10 13 14 11 12 9 7 18 16 21 22
18 17 17 17 17 16 17 17 16 14 14 11 8 2 2 3 6 8 8 22 21 20 16 10 8 7 6 7 6 8 11 9 14 9 12 13 8 3 11 7 9 20 14 17 20
18 19 19 18 18 18 18 18 16 14 13 8 3 2 3 12 2 8 13 21 22 23 6 26 16 2 4 7 6 11 8 9 13 10 9 14 7 7 3 5 13 18 11 9 21
19 20 19 18 17 17 17 17 14 11 8 5 2 3 7 11 13 18 13 10 18 18 23 15 15 6 5 7 7 2 1 7 8 13 13 6 5 3 7 6 7 16 12 8 19
19 19 18 18 17 15 12 8 6 5 3 3 5 3 10 13 8 16 19 10 14 18 18 8 3 6 2 2 5 4 4 7 9 21 11 5 11 13 14 10 8 12 14 9 20
20 19 17 16 15 13 6 2 4 6 7 7 5 2 7 4 6 11 21 17 6 3 2 3 3 0 4 4 4 4 1 2 6 9 6 8 8 19 18 14 12 13 13 8 20
20 19 16 13 12 9 4 2 3 2 4 8 8 6 8 3 7 10 16 13 4 4 5 4 4 5 8 5 7 3 5 4 6 8 7 7 14 20 17 14 14 14 11 10 17
20 18 14 11 11 11 6 2 7 3 8 17 15 11 18 9 4 7 12 7 5 7 2 5 5 8 7 7 6 5 3 5 8 8 8 6 14 19 19 21 17 14 10 14 13
20 18 14 12 14 9 6 14 18 19 4 8 6 6 6 9 7 10 11 6 5 5 5 6 7 9 6 7 8 8 6 9 6 9 4 6 2 4 3 10 12 12 9 16 18
20 20 16 15 6 5 9 14 20 8 4 6 3 6 5 8 5 10 12 6 3 9 6 6 6 5 7 8 8 7 9 13 18 8 5 6 4 5 7 9 13 15 11 15 14
21 18 18 12 13 3 12 25 34 4 5 7 2 5 2 7 8 5 17 3 6 6 6 8 6 7 7 13 8 10 6 10 17 5 8 2 3 2 9 9 15 8 12 12 17
23 19 16 8 10 17 18 31 7 5 2 7 2 5 2 1 0 5 6 3 2 2 5 9 6 7 9 9 10 7 4 8 7 4 2 10 6 4 9 17 21 11 10 13 12
29 20 16 9 5 16 25 7 5 3 9 7 4 5 7 4 2 6 6 5 5 3 4 5 7 10 6 7 4 5 6 1 2 1 6 13 4 6 11 16 22 17 11 9 10
27 18 12 18 16 17 11 5 6 3 5 4 6 17 6 7 6 9 6 4 5 5 3 3 6 5 3 8 6 3 8 5 5 5 2 10 6 6 12 9 5 7 8 7 9
16 8 8 7 2 2 5 5 3 3 4 6 15 6 5 4 3 7 10 7 6 7 6 3 5 5 3 5 9 3 2 6 2 1 4 4 1 7 9 4 7 7 8 10 10
14 6 8 11 9 6 5 2 3 4 3 3 6 7 7 8 5 5 5 6 6 3 5 5 3 2 5 1 3 6 3 3 4 1 3 3 4 2 4 6 6 7 7 9 13
5 3 7 12 13 6 4 4 5 9 5 1 4 6 2 3 4 5 7 4 8 8 6 4 2 7 3 1 6 4 3 5 4 4 4 4 2 3 9 10 8 9 8 8 9
4 2 21 15 4 2 3 5 7 6 9 4 3 4 4 4 6 5 4 2 8 4 3 1 4 1 6 5 4 5 5 5 5 3 3 4 2 6 13 12 10 9 13 10 11
2 3 11 9 1 1 4 3 3 6 5 6 4 4 0 2 5 5 4 4 8 6 2 5 4 3 7 7 8 5 4 5 5 2 4 5 3 7 14 11 8 13 11 9 10
2 3 4 4 1 6 5 3 1 5 5 3 3 3 3 6 4 4 7 5 3 3 3 3 4 4 3 5 3 5 9 1 6 3 3 3 16 11 14 18 14 7 10 10 9
2 2 4 2 4 3 7 3 9 6 8 10 8 5 4 3 4 6 5 7 5 9 5 4 3 4 4 7 2 5 10 7 3 5 5 14 17 13 15 15 13 19 12 13 13
3 4 5 3 3 9 6 4 6 4 5 5 8 11 10 5 3 3 3 5 1 7 6 6 3 6 7 6 7 5 15 6 7 9 12 17 12 16 18 16 15 15 15 13 13
7 5 4 5 2 5 2 5 6 2 6 7 5 4 8 5 2 2 3 3 5 4 5 4 3 3 3 7 5 6 6 6 3 3 17 11 20 23 20 19 15 15 13 11 12
Wind_Direction
332 332 331 330 330 330 329 326 325 322 320 320 321 322 321 319 314 290 243 218 212 157 134 151 200 208 214 254 200 89 352 330 305 170 116 142 117 38 303 130 142 79 139 148 148
332 331 330 328 328 325 325 323 321 322 320 320 321 321 324 331 317 255 251 219 187 178 175 173 183 177 185 212 211 142 278 253 327 319 169 127 124 143 98 45 42 127 131 140 140
329 327 324 322 321 320 320 320 319 318 317 318 320 320 327 340 307 248 302 211 191 179 215 210 201 167 194 180 213 153 165 203 276 283 161 129 135 136 132 140 231 158 148 143 146
327 325 322 318 316 315 313 314 314 315 315 316 317 320 326 358 232 275 316 184 180 187 191 195 186 189 199 198 183 125 236 224 302 355 112 126 139 139 154 196 190 172 153 144 150
326 324 320 317 315 314 312 311 311 310 310 312 314 328 73 343 252 253 330 164 166 176 193 185 186 191 189 197 153 221 172 216 82 307 129 150 128 138 163 166 165 166 150 151 158
327 324 321 317 314 312 308 307 307 307 307 307 309 323 146 259 263 246 182 164 177 185 202 193 208 207 282 220 208 208 186 177 188 167 150 115 75 132 180 177 186 168 167 165 160
326 323 319 315 313 310 306 303 302 302 301 298 300 196 270 239 181 179 182 183 187 191 168 212 225 258 354 302 237 249 146 159 190 161 135 117 45 27 167 240 183 170 174 156 161
327 324 320 316 313 308 304 301 304 302 297 275 234 181 246 255 243 257 210 206 208 214 211 208 224 270 198 270 349 140 285 150 156 175 167 110 168 284 249 236 193 178 177 176 160
329 327 322 320 317 315 324 333 353 4 271 198 158 172 266 308 194 223 210 196 198 223 233 249 239 215 321 39 9 14 198 123 162 190 165 164 164 186 197 225 227 203 183 179 157
337 332 328 327 327 339 14 38 98 67 93 142 265 345 270 259 213 199 204 194 178 177 329 213 173 309 44 76 214 234 25 125 156 152 37 123 147 170 193 208 222 205 185 154 157
343 345 339 349 347 349 352 315 27 21 233 196 193 237 279 320 275 227 195 172 157 112 180 204 102 202 233 194 231 296 354 62 91 101 131 113 148 187 192 205 225 188 183 157 160
345 351 353 347 339 331 309 232 227 78 294 228 233 235 263 283 244 242 200 149 151 198 189 23 193 217 229 251 264 267 136 104 75 97 57 150 144 181 204 211 209 178 173 157 156
345 346 354 340 325 314 263 256 316 308 309 292 192 209 230 157 219 220 146 176 154 186 179 167 232 206 205 258 271 259 168 182 152 109 28 263 73 139 279 208 199 185 171 167 157
341 336 334 343 338 310 266 318 329 314 30 284 189 268 203 179 191 193 182 141 143 194 196 223 250 208 217 244 207 257 212 169 146 134 171 222 217 228 171 249 191 193 175 175 167
341 330 325 318 298 256 292 324 327 125 22 339 223 277 92 143 155 213 194 116 178 201 116 239 219 200 203 227 202 239 203 183 165 125 118 259 118 263 146 197 206 201 175 165 178
342 328 322 306 284 284 321 325 336 49 302 315 115 304 83 154 177 168 161 107 101 257 281 245 250 175 214 238 223 232 87 66 57 59 86 194 161 209 181 177 206 198 199 166 168
335 322 302 260 257 313 321 348 47 49 339 338 357 335 277 234 256 152 168 171 165 134 285 298 249 248 208 250 349 106 76 89 102 250 229 159 179 245 185 180 195 178 171 137 85
333 314 297 280 289 306 343 57 68 319 265 278 282 309 203 186 226 166 165 194 219 118 334 215 313 187 215 175 178 140 141 154 184 172 181 151 202 268 194 171 142 142 136 102 86
342 325 289 273 6 140 74 55 199 231 259 316 320 9 355 344 193 141 180 196 209 154 195 13 271 324 192 194 129 254 94 194 96 89 96 182 19 29 62 77 134 109 115 149 122
337 332 274 272 162 84 70 244 246 225 261 282 29 19 25 342 31 123 142 348 4 30 177 233 246 275 289 107 33 135 168 67 20 250 128 347 64 310 84 78 58 127 143 132 116
342 23 273 163 155 55 109 229 277 259 219 11 37 37 355 358 54 22 17 16 13 325 55 41 97 296 27 140 169 37 61 58 112 118 161 142 6 292 103 93 87 83 113 100 89
357 354 178 166 54 87 138 202 239 0 16 352 76 76 10 9 34 49 42 51 350 339 30 29 134 278 234 277 225 141 138 113 117 272 93 104 81 93 101 89 88 82 91 93 80
335 276 192 244 77 271 258 256 71 32 13 17 24 58 336 330 72 23 341 49 41 45 37 321 11 25 352 359 0 36 32 127 114 91 193 122 171 132 106 93 75 89 80 88 91
96 14 328 49 209 96 93 346 37 32 6 36 344 66 87 10 40 47 347 2 44 83 245 73 59 109 151 218 216 353 354 66 112 111 157 91 141 162 143 135 120 75 84 96 106
59 270 201 319 335 46 80 51 48 18 1 9 16 336 134 80 19 11 350 346 5 357 11 91 84 26 346 359 41 42 359 334 132 177 132 164 143 154 142 133 129 119 108 89 89
69 39 357 315 0 72 38 2 70 19 49 7 52 28 53 65 104 181 7 37 301 326 22 356 358 45 7 0 38 48 16 28 107 113 79 120 104 137 130 124 121 114 114 103 95
353 342 100 300 33 85 1 48 38 59 33 82 64 69 29 355 277 252 207 220 233 347 15 42 67 52 335 340 3 28 343 12 44 62 135 126 143 139 137 132 131 126 120 119 109